Weather History for Newburgh, NY

Change the Weather History Date:

Thursday, July 18, 2013

  Actual Average Record
Temperature  
Mean Temperature 83 °F -  
Max Temperature 93 °F 80 °F 96 °F (1999)
Min Temperature 73 °F 60 °F 46 °F (1974)
Cooling Degree Days 18    
Growing Degree Days 33 (Base 50)    
Moisture  
Dew Point 73 °F    
Average Humidity 73    
Maximum Humidity 94    
Minimum Humidity 52    
Precipitation  
Precipitation 0.00 in - - ()
Sea Level Pressure  
Sea Level Pressure 30.05 in    
Wind  
Wind Speed 5 mph (West)    
Max Wind Speed 12 mph    
Max Gust Speed -    
Visibility 13 miles    
Events      
Averages and records for this station are not official NWS values.
T = Trace of Precipitation, MM = Missing Value Source: NWS Daily Summary

Daily Weather History Graph

Daily Weather History Graph

Search for Another Location

Airport:

Trip Planner

Search our weather history database for the weather conditions in past years. The results will help you decide how hot, cold, wet, or windy it might be!

Date:

Astronomy

Jul. 18, 2013 Rise Set
Actual Time 5:38 AM EDT 8:26 PM EDT
Civil Twilight 5:05 AM EDT 8:59 PM EDT
Nautical Twilight 4:24 AM EDT 9:40 PM EDT
Astronomical Twilight 3:37 AM EDT 10:27 PM EDT
Moon 4:20 PM EDT (7/18) 1:27 AM EDT (7/18)
Length of Visible Light 15h 53m
Length of Day
14h 48m
Waxing Gibbous, 77% of the Moon is Illuminated
Jul 18
Waxing Gibbous
Jul 22
Full
Jul 29
Last Quarter
Aug 6
New
Aug 14
First Quarter

Hourly Weather History & Observations

Time (EDT) Temp. Heat Index Dew Point Humidity Pressure Visibility Wind Dir Wind Speed Gust Speed Precip Events Conditions
12:50 AM 78.8 °F - 71.6 °F 78% 30.09 in 10.0 mi Calm Calm - N/A   Clear
1:45 AM 78.8 °F - 71.6 °F 78% 30.09 in 10.0 mi SW 8.1 mph - N/A   Overcast
2:45 AM 78.8 °F - 71.6 °F 78% 30.07 in 10.0 mi Calm Calm - N/A   Scattered Clouds
4:45 AM 73.4 °F - 71.6 °F 94% 30.06 in 10.0 mi Calm Calm - N/A   Mostly Cloudy
5:45 AM 73.4 °F - 71.6 °F 94% 30.06 in 10.0 mi West 5.8 mph - N/A   Scattered Clouds
6:45 AM 75.2 °F - 73.4 °F 94% 30.08 in 15.0 mi West 6.9 mph - N/A   Partly Cloudy
7:45 AM 78.8 °F - 73.4 °F 83% 30.08 in 15.0 mi West 6.9 mph - N/A   Partly Cloudy
8:45 AM 82.4 °F 90.9 °F 77.0 °F 84% 30.09 in 15.0 mi West 8.1 mph - N/A   Clear
10:45 AM 87.8 °F 97.6 °F 75.2 °F 66% 30.08 in 15.0 mi NNW 9.2 mph - N/A   Clear
11:45 AM 87.8 °F 95.6 °F 73.4 °F 62% 30.08 in 15.0 mi West 5.8 mph - N/A   Partly Cloudy
12:45 PM 89.6 °F 96.2 °F 71.6 °F 55% 30.06 in 15.0 mi West 4.6 mph - N/A   Partly Cloudy
3:45 PM 93.2 °F 102.4 °F 73.4 °F 52% 30.01 in 15.0 mi WSW 9.2 mph - N/A   Partly Cloudy
4:45 PM 93.2 °F 102.4 °F 73.4 °F 52% 30.00 in 15.0 mi WSW 9.2 mph - N/A   Partly Cloudy
5:45 PM 91.4 °F 100.1 °F 73.4 °F 55% 29.99 in 15.0 mi West 11.5 mph - N/A   Partly Cloudy
6:45 PM 89.6 °F 98.2 °F 73.4 °F 59% 30.00 in 15.0 mi West 9.2 mph - N/A   Scattered Clouds
7:45 PM 86.0 °F 95.1 °F 75.2 °F 70% 30.01 in 15.0 mi West 5.8 mph - N/A   Scattered Clouds
8:45 PM 86.0 °F 95.1 °F 75.2 °F 70% 30.01 in 10.0 mi WNW 5.8 mph - N/A   Scattered Clouds
9:45 PM 84.2 °F 92.3 °F 75.2 °F 74% 30.01 in 10.0 mi Calm Calm - N/A   Partly Cloudy
10:45 PM 80.6 °F 86.2 °F 75.2 °F 84% 29.99 in 10.0 mi WSW 5.8 mph - N/A   Partly Cloudy